Powrót do katalogu

STARLINK-35552

AktywnyŁącznośćVLEO
NORAD 66058·PAYLOAD·🇺🇸 United States

Wystrzelony Oct 19, 2025 z Cape Canaveral Space Force Station

Loading…

Następne Przeloty (najbliższe 24 godziny)

TLE

ŚwieżeSource: CelesTrak SupGP

Epoka: Sep 14, 2026, 23:10 UTC

1 66058C 25235A   26257.96576389  .00039565  00000+0  11691-2 0  2571
2 66058  53.1585  79.4089 0001236  76.0702 307.2652 15.34366563    13

Śledź STARLINK-35552 w czasie rzeczywistym z AllMySat

Download on the App Store